sat.trackr.live / text

‹ back to catalog

STARLINK-35363

NORAD 66178 · 2025-243B

PAYLOAD ACTIVE UNKNOWN

§ Identity

Operator
Country
US
Launch date
2025-10-26
Launch site
AFETR
Launch vehicle
Mass (kg)
RCS (m²)

Purposes: comms

External: N2YO · Heavens-Above · Gunter

§ Orbital elements

Epoch: 2026-05-24T23:40:17.121792Z

Period
94.11 min
Inclination
53.1570°
Eccentricity
0.0001146
Mean motion
15.30204997 rev/d
Perigee alt
474.4 km
Apogee alt
476.0 km
Semi-major
6,853.3 km
B*
7.5812e-4
RAAN
250.9663°
Arg perigee
65.1138°
Mean anomaly
294.9982°
Rev number
3,233

§ Raw data

STARLINK-353631 66178U 25243B   26144.98630928  .00022165  00000+0  75812-3 0  99972 66178  53.1570 250.9663 0001146  65.1138 294.9982 15.30204997 32332

JSON: /api/v1/satellites/66178 · /tle

For live sub-satellite position, see the globe view (requires WebGL).

§ Visibility from observer

Set your observer location to see the next 7 days of passes ≥ 10°. The values pass through the URL so the page stays shareable.

No JS? Fill the form by hand. The geolocation button needs JavaScript.